RADUGA 1 [-]

Last updated on July 6, 2021, 3:35 p.m. UTC

1 08513U 75123A   21186.80729164 -.00000161  00000-0  00000-0 0  9999
2 08513   7.3919 293.3088 0007466 199.6496 165.7178  1.00285712176698
UTC
Height (km)
Latitude
Longitude
Inclination
Orbital Period
UTC large
Height (km)
Speed (km/s)
/
Latitude / Longitude
Inclination (degrees)
Orbital Period (minutes)
Azimuth
Elevation
Range (km)
Doppler Factor
iOS Compass Heading
iOS Angle